Regional Weather Roundup
Issued by NWS Northern Indiana

Home | Current Version | Previous Version | Graphics & Text | Print | Product List | Glossary On
Versions: 1 2 3 4 5 6 7 8 9 10 11 12 13 14 15 16 17 18 19 20 21 22 23 24 25 26 27 28 29 30 31 32 33 34 35 36 37 38 39 40 41 42 43 44 45 46 47 48 49 50
000
ASUS43 KIWX 270100
RWRIWX

KIWX WEATHER ROUNDUP
NATIONAL WEATHER SERVICE NORTHERN INDIANA
900 PM EDT FRI MAY 26 2017

NOTE: "FAIR" INDICATES FEW OR NO CLOUDS BELOW 12,000 FEET WITH NO
SIGNIFICANT WEATHER AND/OR OBSTRUCTIONS TO VISIBILITY.

* THESE STATIONS ARE NOT UNDER NWS QUALITY CONTROL. THEY ALSO MAY NOT
  REPORT WEATHER SUCH AS PRECIPITATION OR FOG.

INZ001>027-270200-
NORTHERN INDIANA

CITY           SKY/WX    TMP DP  RH WIND       PRES   REMARKS
GARY*          CLOUDY    57  54  88 E12       29.83S
MICHIGAN CITY* DRIZZLE   59  59 100 NE7       29.84R
SOUTH BEND     RAIN      60  59  96 NE9       29.82R FOG
ELKHART*       LGT RAIN  61  57  88 NE6       29.83R
GOSHEN         LGT RAIN  63  58  83 E9        29.82R
MONTICELLO*    CLOUDY    65  63  91 CALM      29.78R
ANGOLA*        CLOUDY    61  54  77 CALM      29.87R
FORT WAYNE     TSTM      65  61  87 NE8       29.82F FOG
PERU/GRISSOM   MOCLDY    66  66 100 S9        29.78F

$$
INZ028>050-270200-
CENTRAL INDIANA

CITY           SKY/WX    TMP DP  RH WIND       PRES   REMARKS
LAFAYETTE      CLOUDY    67  65  93 S6        29.78S
KOKOMO*        LGT RAIN  67  63  87 SE12      29.79F
MUNCIE*        TSTM      70  63  78 SE6       29.82S
INDIANAPOLIS   TSTM      74  63  68 S12       29.79R

$$
MIZ043>046-050>051-056>058-064>065-071>073-077>080-270200-
SOUTHWEST LOWER MICHIGAN

CITY           SKY/WX    TMP DP  RH WIND       PRES   REMARKS
BATTLE CREEK   CLOUDY    66  58  75 E5        29.87R
BENTON HARBOR  RAIN      58  54  86 CALM      29.85R FOG
COLDWATER*     CLOUDY    65  58  77 CALM      29.86S
HILLSDALE*     CLOUDY    61  55  82 CALM      29.88R
HOLLAND        LGT RAIN  58  53  84 NE3       29.86F
GRAND RAPIDS   CLOUDY    66  56  70 S5        29.86S
KALAMAZOO      LGT RAIN  66  56  70 E3        29.84F
STURGIS*       RAIN      62  56  81 E6        29.82F
THREE RIVERS*  LGT RAIN  62  56  80 SE6       29.83F

$$
OHZ001>008-015>018-024>025-270200-
NORTHWEST OHIO

CITY           SKY/WX    TMP DP  RH WIND       PRES   REMARKS
DEFIANCE       CLOUDY    65  57  75 CALM      29.85S
FINDLAY        CLEAR     66  55  67 E3        29.85F
TOLEDO EXPRESS PTCLDY    63  59  87 S3        29.87R
TOLEDO METCALF PTCLDY    66  58  75 E9        29.87S
LIMA           PTCLDY    65  58  78 E3        29.86S

$$
AND FOR LAKE MICHIGAN COASTAL AND OPEN LAKE BUOY OBSERVATIONS

STATION/POSITION TEMP    WIND        PRES    VSBY  WAVE
                 AIR SEA DIR/SP/G                  HT/PER
                 (F)     (DEG/KT/KT) (MB)    (MI)  (FT/S)
CALUMET HARBOR    54      30/  9/ 15 1009.4F
MICHIGAN CITY     54      30/ 18/ 19   N/A
BURNS HARBOR      57      60/ 18/ 23 1010.5R
SOUTH LAKE BUOY   49 47   30/  6/  8 1010.7          1
4 MI NW BRIDGMAN  56 56   60/ 10/ 14 1011.1R         2/ 3
MICHIGAN CITY     54 53   50/ 14/ 17   N/A           2/ 3

$$
&&



USA.gov is the U.S. government's official web portal to all federal, state and local government web resources and services.